Location: Miles
(41.4492°N, 81.6087°W)
Time: 19:35:35
(UTC+00:00)

Courier 1B - Pass Details

Date: 13 September 2024
Orbit: 962 x 1208 km, 28.3° (Epoch: 06 October)

Event Time Altitude Azimuth Distance (km) Brightness Sun altitude
Rises 20:13:05 0° 229° (SW) 3,919 11.6 36.0°
Reaches altitude 10° 20:16:21 10° 216° (SW) 3,003 11.2 35.5°
Maximum altitude 20:22:07 25° 166° (SSE) 2,174 9.8 34.6°
Drops below altitude 10° 20:28:04 10° 115° (ESE) 3,116 9.9 33.6°
Sets 20:31:32 0° 103° (ESE) 4,098 10.4 33.1°
